Location: Grasslands National Park East Block
(49.0708°N, 106.5295°W)
Time: 08:56:58
(UTC-06:00)

Vanguard 1 Rocket - Pass Details

Date: 22 September 2019
Orbit: 650 x 4226 km, 34.3° (Epoch: 20 October)

Event Time Altitude Azimuth Distance (km) Brightness Sun altitude
Rises 20:53:38 0° 257° (WSW) 7,929 13.1 -18.3°
Reaches altitude 10° 21:00:03 10° 252° (WSW) 6,454 12.4 -19.3°
Maximum altitude 21:16:28 41° 192° (SSW) 2,951 9.8 -21.7°
Enters shadow 21:21:38 28° 145° (SE) 2,954 9.5 -22.4°
Drops below altitude 10° 21:25:32 10° 125° (SE) 3,634 - -23.0°
Sets 21:28:04 0° 118° (ESE) 4,281 - -23.4°
